Fairbanks, AK

11:14 PM AKST on December 11, 2019 (GMT -0900)
Fairbanks International

Weather History for PAFA - January, 1975

Change the Weather History Date:

Monday, January 27, 1975

  Actual Average Record
Temperature  
Mean Temperature 18 °F -8 °F  
Max Temperature 25 °F 2 °F 39 °F (1945)
Min Temperature 10 °F -15 °F -58 °F (1933)
Degree Days  
Heating Degree Days 48 72  
Month to date heating degree days 1974  
Since 1 July heating degree days 8246  
Cooling Degree Days 0 0  
Month to date cooling degree days 0  
Year to date cooling degree days 0  
Moisture  
Dew Point 13 °F    
Average Humidity 76    
Maximum Humidity 80    
Minimum Humidity 68    
Precipitation  
Precipitation 0.42 in 0.02 in 0.42 in (1975)
Month to date precipitation 0.51  
Year to date precipitation 0.51  
Snow  
Snow 0.00 in 0.30 in 8.20 in (1975)
Month to date snowfall 9.0  
Since 1 July snowfall 46.9  
Snow Depth -    
Sea Level Pressure  
Sea Level Pressure 30.22 in    
Wind  
Wind Speed 7 mph (North)    
Max Wind Speed 58 mph    
Max Gust Speed -    
Visibility 4 miles    
Events Snow    
T = Trace of Precipitation, MM = Missing Value Source: NWS Daily Summary

Daily Weather History Graph

Daily Weather History Graph

Search for Another Location

Airport or City:

Astronomy

Jan. 27, 1975 Rise Set
Actual Time 8:53 AM AHST 3:15 PM AHST
Civil Twilight 7:51 AM AHST 4:17 PM AHST
Nautical Twilight 6:49 AM AHST 5:20 PM AHST
Astronomical Twilight 5:51 AM AHST 6:17 PM AHST
Moon 4:40 PM AHST (1/27) 8:10 AM AHST (1/27)
Length of Visible Light 8h 26m
Length of Day
6h 21m
Full, 100% of the Moon is Illuminated
Jan 27
Full
Feb 2
Last Quarter
Feb 10
New
Feb 18
First Quarter
Feb 25
Full

Hourly Weather History & Observations

Time (AHST) Temp. Windchill Dew Point Humidity Pressure Visibility Wind Dir Wind Speed Gust Speed Precip Events Conditions
12:00 AM 17.1 °F 6.6 °F 8.1 °F 68% 30.32 in 15.0 mi SSW 8.1 mph - N/A   Unknown
1:00 AM 14.0 °F -0.8 °F 7.0 °F 74% 30.32 in 15.0 mi SW 13.8 mph - N/A   Scattered Clouds
2:00 AM 15.1 °F 9.4 °F 10.0 °F 80% 30.32 in 15.0 mi SSW 3.5 mph - N/A   Unknown
3:00 AM 10.0 °F - 3.9 °F 76% 30.32 in 10.0 mi Calm Calm - N/A   Unknown
4:00 AM 12.0 °F 5.9 °F 5.0 °F 73% 30.32 in 10.0 mi North 3.5 mph - N/A   Overcast
5:00 AM 14.0 °F 6.5 °F 8.1 °F 77% 30.30 in 8.0 mi NNE 4.6 mph - N/A Snow Light Snow
6:00 AM 15.1 °F 7.7 °F 7.0 °F 70% 30.30 in 6.0 mi NNE 4.6 mph - N/A Snow Light Snow
7:00 AM 16.0 °F 10.4 °F 10.0 °F 77% 30.28 in 10.0 mi North 3.5 mph - N/A Snow Light Snow
8:00 AM 18.0 °F 11.1 °F 12.0 °F 78% 30.28 in 4.0 mi North 4.6 mph - N/A Snow Light Snow
8:30 AM - - - N/A% 30.23 in 2.0 mi WNW 57.5 mph - N/A   Unknown
9:00 AM 19.0 °F 11.1 °F 12.9 °F 77% 30.27 in 2.0 mi North 5.8 mph - N/A Snow Light Snow
9:43 AM - - - N/A% 30.23 in 5.5 mi North 5.8 mph - N/A   Unknown
10:00 AM 19.9 °F 13.4 °F 14.0 °F 78% 30.27 in 5.5 mi North 4.6 mph - 0.01 in Snow Light Snow
10:02 AM - - - N/A% 30.23 in 1.0 mi North 5.8 mph - N/A   Unknown
11:00 AM 21.0 °F 14.6 °F 15.1 °F 78% 30.26 in 1.0 mi North 4.6 mph - 0.03 in Snow Light Snow
11:02 AM - - - N/A% 30.22 in 0.8 mi North 4.6 mph - N/A   Unknown
12:00 PM 21.9 °F 14.5 °F 16.0 °F 78% 30.26 in 0.8 mi North 5.8 mph - 0.02 in Snow Light Snow
1:00 PM 21.9 °F 17.2 °F 16.0 °F 78% 30.25 in 1.0 mi North 3.5 mph - 0.01 in Snow Light Snow
2:00 PM 21.9 °F 15.7 °F 16.0 °F 78% 30.24 in 1.0 mi NNE 4.6 mph - 0.05 in Snow Light Snow
3:00 PM 23.0 °F 17.0 °F 17.1 °F 78% 30.22 in 1.0 mi NE 4.6 mph - 0.01 in Snow Light Snow
3:05 PM - - - N/A% 0.00 in 2.0 mi NE 4.6 mph - N/A   Unknown
3:37 PM - - - N/A% 30.17 in 1.0 mi North 4.6 mph - N/A   Unknown
4:00 PM 23.0 °F 17.0 °F 17.1 °F 78% 30.20 in 1.0 mi North 4.6 mph - 0.02 in Snow Light Snow
4:19 PM - - - N/A% 0.00 in 0.8 mi North 4.6 mph - N/A   Unknown
5:00 PM 23.0 °F 15.8 °F 17.1 °F 78% 30.20 in 0.8 mi North 5.8 mph - 0.06 in Snow Light Snow
5:45 PM - - - N/A% 30.15 in 1.0 mi ENE 3.5 mph - N/A   Unknown
6:00 PM 24.1 °F 18.2 °F 17.1 °F 75% 30.19 in 1.0 mi ENE 4.6 mph - 0.07 in Snow Light Snow
7:00 PM 24.1 °F 18.2 °F 18.0 °F 77% 30.18 in 1.0 mi NNE 4.6 mph - 0.02 in Snow Light Snow
7:03 PM - - - N/A% 30.14 in 2.0 mi NE 4.6 mph - N/A   Unknown
7:33 PM - - - N/A% 30.14 in 5.5 mi NNE 5.8 mph - N/A   Unknown
8:00 PM 24.1 °F - 18.0 °F 77% 30.17 in 1.0 mi Calm Calm - 0.03 in Snow Light Snow
8:18 PM - - - N/A% 30.13 in 0.8 mi NNW 3.5 mph - N/A   Unknown
9:00 PM 25.0 °F 19.3 °F 18.0 °F 75% 30.16 in 0.8 mi North 4.6 mph - 0.03 in Snow Light Snow
9:47 PM - - - N/A% 30.12 in 5.5 mi North 3.5 mph - N/A   Unknown
10:00 PM 25.0 °F 19.3 °F 18.0 °F 75% 30.16 in 5.5 mi NNW 4.6 mph - 0.02 in Snow Light Snow
11:00 PM 25.0 °F 20.7 °F 19.0 °F 78% 30.17 in 5.5 mi North 3.5 mph - 0.04 in Snow Light Snow
11:40 PM - - - N/A% 30.14 in 10.5 mi Calm Calm - N/A   Unknown